Location: Driftpile
(55.3500°N, 115.7667°W)
Time: 10:39:15
(UTC+00:00)

N. Korean satellite - Pass Details

Date: 05 December 2021
Orbit: 447 x 491 km, 97.3° (Epoch: 23 January)

Event Time Altitude Azimuth Distance (km) Brightness Sun altitude
Rises 12:10:05 0° 25° (NNE) 2,475 10.5 -30.1°
Reaches altitude 10° 12:12:37 10° 45° (NE) 1,591 9.7 -29.7°
Maximum altitude 12:15:03 18° 91° (E) 1,167 9.2 -29.4°
Drops below altitude 10° 12:17:28 10° 137° (SE) 1,576 9.6 -29.1°
Sets 12:19:57 0° 157° (SSE) 2,442 10.4 -28.7°
